Date,TemperatureHighF,TemperatureAvgF,TemperatureLowF,DewpointHighF,DewpointAvgF,DewpointLowF,HumidityHigh,HumidityAvg,HumidityLow,PressureMaxIn,PressureMinIn,WindSpeedMaxMPH,WindSpeedAvgMPH,GustSpeedMaxMPH,PrecipitationSumIn
2013-1-1,35.2,35.0,33.2,32.0,31.5,27.2,89,87,76,30.34,30.25,3,0,3,0.00
2013-1-2,35.2,35.2,35.2,32.0,32.0,32.0,88,88,88,30.31,30.31,0,0,0,0.00
2013-1-3,39.7,35.8,33.4,31.8,29.6,28.4,83,78,73,30.31,30.25,0,0,0,0.00
2013-1-4,63.5,42.1,30.2,42.9,31.0,27.5,98,69,34,30.25,30.07,6,1,10,0.00
2013-1-5,50.3,41.2,32.5,44.6,36.1,28.6,97,83,64,30.22,29.98,5,0,6,0.00
2013-1-6,50.3,41.3,35.7,43.7,38.0,34.3,98,88,76,30.13,30.07,2,0,2,0.00
2013-1-7,65.1,45.0,33.4,56.0,39.0,32.9,98,82,44,30.16,30.04,3,0,4,0.00
2013-1-8,57.9,43.9,36.3,52.5,39.9,34.7,98,87,57,30.16,30.04,4,0,6,0.00
2013-1-9,55.7,44.8,36.5,48.9,39.5,30.6,98,83,57,30.10,29.84,4,1,8,0.00
2013-1-10,54.8,43.0,34.7,39.2,29.9,25.1,94,63,36,30.05,29.92,5,1,9,0.00
2013-1-11,53.7,40.7,30.5,36.8,29.9,26.4,92,68,39,30.13,29.95,4,0,7,0.00
2013-1-12,56.8,40.0,27.6,36.8,25.7,20.5,98,62,29,30.14,30.01,4,1,8,0.00
2013-1-13,54.5,33.7,23.9,29.9,22.2,19.6,90,67,27,30.14,30.04,4,0,6,0.00
2013-1-14,55.5,43.8,31.1,23.2,18.2,12.9,61,37,27,30.28,30.19,6,5,6,0.00
2013-1-15,58.8,38.6,26.9,31.3,22.8,17.3,74,55,34,30.37,30.28,5,1,11,0.00
2013-1-16,61.8,40.6,26.7,35.3,26.1,21.6,89,60,34,30.37,30.13,6,1,8,0.00
2013-1-17,67.8,42.8,26.9,38.7,26.0,21.6,87,57,25,30.19,30.01,6,1,11,0.00
2013-1-18,68.9,44.3,28.2,39.6,25.8,21.0,87,53,24,30.16,30.01,6,1,9,0.00
2013-1-19,68.1,44.2,27.5,37.1,27.6,20.6,85,55,30,30.16,30.01,3,1,4,0.00
2013-1-20,68.3,44.4,28.2,36.7,26.5,22.1,90,55,24,30.14,29.98,7,1,8,0.00
2013-1-21,70.3,44.4,27.6,39.5,28.8,21.0,84,58,32,30.07,29.95,7,1,7,0.00
2013-1-22,69.0,46.2,30.5,44.0,34.4,26.0,93,67,34,30.02,29.86,4,0,6,0.00
2013-1-23,52.5,47.5,42.9,49.7,44.0,37.5,98,88,71,30.01,29.87,2,0,6,0.08
2013-1-24,59.3,53.7,48.2,51.7,49.6,47.6,98,87,68,30.13,29.95,5,1,7,0.04
2013-1-25,71.7,56.6,48.5,59.1,50.0,47.2,98,81,47,30.10,29.95,5,0,6,0.00
2013-1-26,63.6,51.7,44.0,56.9,40.6,31.6,98,70,32,29.98,29.83,6,1,12,0.00
2013-1-27,63.8,47.5,34.7,42.4,32.6,26.2,95,60,30,30.10,29.96,5,1,8,0.00
2013-1-28,63.5,48.3,36.6,41.4,34.1,30.4,84,61,35,30.19,30.04,4,1,6,0.00
2013-1-29,64.9,48.7,38.1,41.8,35.2,32.4,86,63,34,30.25,30.13,2,0,3,0.00
2013-1-30,70.7,50.6,36.1,48.9,36.5,32.6,98,64,33,30.28,30.13,5,0,5,0.00
2013-1-31,72.3,49.5,33.9,46.3,37.1,30.2,96,66,35,30.25,30.07,5,0,9,0.00
2013-2-1,70.8,50.1,34.7,48.2,37.7,31.6,98,66,35,30.13,30.01,0,0,0,0.00
2013-2-2,68.7,51.0,40.1,51.3,40.4,35.3,96,70,39,30.25,30.07,2,0,2,0.00
2013-2-3,67.4,50.6,38.6,50.5,39.7,35.6,98,70,38,30.19,30.01,4,0,4,0.00
2013-2-4,69.0,49.7,36.3,48.3,40.8,33.5,98,74,41,30.10,29.95,3,0,5,0.00
2013-2-5,51.9,47.3,42.0,47.2,42.3,38.1,96,83,71,30.04,29.95,1,0,2,0.00
2013-2-6,67.2,49.4,36.3,48.8,37.2,33.4,98,67,36,30.13,29.98,4,0,4,0.00
2013-2-7,60.0,48.6,40.2,47.9,38.0,32.2,93,69,40,30.10,29.87,6,2,9,0.00
2013-2-8,61.3,45.9,35.4,42.5,34.0,27.6,94,66,38,29.90,29.78,6,1,9,0.00
2013-2-9,65.3,45.6,30.3,41.4,26.8,22.0,88,53,25,30.01,29.87,5,1,8,0.00
2013-2-10,64.7,46.2,29.8,36.3,29.5,22.8,86,55,33,30.02,29.86,6,1,9,0.00
2013-2-11,68.7,48.5,32.7,40.3,29.0,23.8,92,53,24,30.10,29.93,8,1,14,0.00
2013-2-12,67.2,47.5,32.0,39.4,30.6,24.5,82,54,32,30.28,30.10,5,0,7,0.00
2013-2-13,72.3,50.9,33.6,42.7,33.5,27.8,89,56,26,30.25,30.04,4,0,6,0.00
2013-2-14,72.6,53.5,35.9,42.6,36.3,30.9,98,57,31,30.13,30.01,7,2,12,0.00
2013-2-15,76.6,56.9,39.0,43.4,36.6,29.5,84,50,27,30.19,30.07,6,1,11,0.00
2013-2-16,73.2,51.2,37.5,47.6,37.7,32.5,91,63,33,30.13,29.89,4,0,7,0.00
2013-2-17,72.6,52.8,37.0,47.5,36.0,30.8,92,58,26,29.95,29.77,4,0,9,0.00
2013-2-18,43.7,40.3,38.3,43.1,34.7,30.0,98,81,69,29.93,29.87,2,0,5,0.00
2013-2-19,38.4,37.7,37.0,32.9,32.1,30.8,81,80,78,29.69,29.66,0,0,0,0.00
2013-2-20,63.5,47.1,32.1,41.4,31.7,28.7,98,60,29,29.93,29.69,6,1,9,0.00
2013-2-21,67.4,49.4,34.1,42.3,31.3,26.9,88,54,25,30.04,29.92,6,1,14,0.00
2013-2-22,71.4,51.1,33.8,42.7,33.8,27.4,87,56,27,30.13,30.01,6,1,9,0.00
2013-2-23,67.1,52.8,38.4,45.1,34.7,28.2,85,53,29,30.16,30.01,6,1,8,0.00
2013-2-24,68.9,49.8,32.9,37.5,26.1,20.0,75,45,22,30.13,30.01,9,1,13,0.00
2013-2-25,69.9,50.6,35.4,39.6,31.2,22.5,79,49,32,30.13,30.01,6,1,9,0.00
2013-2-26,74.4,53.0,33.2,43.7,29.9,25.1,94,48,18,30.13,29.95,5,1,11,0.00
2013-2-27,74.8,53.8,34.1,39.7,31.5,24.4,78,46,22,30.22,30.07,4,1,6,0.00
2013-2-28,75.0,57.4,42.8,49.7,42.1,34.1,88,59,34,30.34,30.22,4,1,9,0.00
2013-3-1,79.7,58.7,41.9,52.0,41.8,37.4,96,58,30,30.37,30.13,6,1,7,0.00
2013-3-2,74.3,59.4,45.5,49.5,44.2,38.3,88,59,38,30.13,29.92,3,0,5,0.00
2013-3-3,71.2,58.6,47.4,46.9,43.1,38.9,84,59,33,29.98,29.89,7,2,11,0.00
2013-3-4,66.0,52.7,45.6,45.9,42.4,37.8,95,70,40,30.07,29.89,6,2,8,0.00
2013-3-5,63.3,52.3,41.5,44.4,38.4,34.7,90,62,37,29.98,29.66,10,3,19,0.04
2013-3-6,60.0,51.7,39.2,47.9,38.2,31.9,92,62,38,29.95,29.66,8,2,20,0.13
2013-3-7,64.2,49.1,36.5,46.5,35.4,31.5,95,63,37,29.90,29.69,6,1,11,0.00
2013-3-8,50.9,48.0,45.1,38.7,37.7,36.2,76,68,57,29.93,29.87,3,1,7,0.00
2013-3-9,73.7,55.0,37.5,47.5,36.2,32.0,95,55,24,30.19,29.90,5,1,9,0.00
2013-3-10,75.0,55.8,36.5,42.5,34.2,30.9,91,50,24,30.28,30.10,5,1,7,0.00
2013-3-11,80.4,57.2,37.5,43.4,35.5,30.4,82,49,23,30.16,29.95,4,1,6,0.00
2013-3-12,81.6,60.1,40.8,48.3,40.0,33.6,81,51,26,30.07,29.89,4,1,6,0.00
2013-3-13,85.1,62.7,43.8,51.8,44.8,39.0,93,56,30,30.10,29.89,5,1,8,0.00
2013-3-14,81.8,61.7,47.6,54.9,43.8,35.3,92,56,25,30.07,29.92,5,1,8,0.00
2013-3-15,79.8,59.5,44.4,46.2,40.8,35.7,80,53,26,30.01,29.86,4,0,7,0.00
2013-3-16,80.2,61.5,43.7,50.0,41.2,32.7,90,54,23,30.01,29.83,7,1,12,0.00
2013-3-18,74.8,63.6,41.0,44.5,40.0,34.0,81,44,30,30.01,29.86,4,1,10,0.00
2013-3-19,76.4,57.8,46.0,45.8,40.5,32.2,85,56,31,30.01,29.92,4,1,9,0.04
2013-3-20,66.9,56.7,49.4,56.3,49.0,43.2,98,77,48,30.01,29.92,5,1,12,0.00
2013-3-21,71.6,56.7,41.1,48.4,40.6,36.3,93,60,32,30.04,29.86,6,1,9,0.00
2013-3-22,75.3,55.6,36.8,46.4,32.0,23.9,98,49,15,30.02,29.86,7,1,13,0.00
2013-3-23,75.7,63.8,37.0,41.4,30.7,26.6,84,32,20,30.04,29.83,5,1,7,0.00
2013-3-24,77.7,58.8,39.7,43.4,35.6,27.7,69,44,27,29.98,29.77,4,1,7,0.00
2013-3-25,68.3,54.7,45.6,45.1,40.4,36.7,87,61,33,29.89,29.78,6,2,11,0.00
2013-3-26,77.1,59.5,47.1,45.5,41.3,37.2,83,54,31,29.87,29.74,6,1,10,0.00
2013-3-27,69.0,58.0,47.3,51.3,44.5,37.0,84,62,43,29.89,29.80,6,2,11,0.00
2013-3-28,75.0,61.8,54.3,61.6,50.8,45.8,98,70,41,29.98,29.86,4,1,7,0.00
2013-3-29,81.5,65.5,49.6,51.4,46.7,43.3,98,55,31,30.01,29.83,6,2,12,0.00
2013-3-30,75.9,62.3,56.4,54.9,48.3,44.1,91,62,37,29.98,29.83,5,1,9,0.00
2013-3-31,72.8,60.9,50.9,59.9,50.5,41.2,98,72,35,30.01,29.86,5,1,8,0.12
2013-4-1,69.2,60.3,54.6,58.4,51.1,42.8,98,75,43,30.07,29.95,4,1,9,0.25
2013-4-2,58.2,55.4,53.6,47.9,46.5,45.6,79,72,65,30.04,29.98,0,0,2,0.00
2013-4-3,83.3,62.7,46.7,53.1,46.0,42.5,97,60,29,30.13,29.83,4,1,9,0.00
2013-4-4,69.8,59.9,53.6,57.8,52.0,46.2,97,76,53,30.04,29.83,6,2,13,0.29
2013-4-5,69.4,60.6,53.4,53.1,48.2,43.7,84,65,43,30.13,29.98,6,2,10,0.00
2013-4-6,71.6,59.7,54.5,52.7,49.7,47.7,85,71,45,30.10,29.98,5,2,10,0.00
2013-4-7,68.1,57.7,50.7,53.0,47.4,42.2,98,71,43,30.10,29.69,6,2,12,0.08
2013-4-8,74.1,58.3,45.8,50.7,35.2,29.5,90,46,21,29.90,29.69,7,3,14,0.00
2013-4-9,81.5,63.8,44.2,39.4,33.8,27.0,82,37,19,29.95,29.80,6,2,10,0.00
2013-4-10,92.3,69.2,48.0,50.1,41.8,32.3,74,41,20,30.04,29.77,5,1,10,0.00
2013-4-11,83.1,65.8,51.9,45.4,41.7,37.5,69,44,23,29.92,29.60,5,2,9,0.00
2013-4-12,86.7,63.1,44.2,49.3,42.1,35.4,89,52,21,29.81,29.60,4,1,6,0.00
2013-4-13,77.9,62.0,48.5,45.3,41.8,36.5,82,51,30,29.81,29.60,5,2,10,0.00
2013-4-14,75.3,59.1,44.9,45.8,36.7,32.4,72,46,23,29.81,29.63,8,2,14,0.00
2013-4-15,66.3,55.1,47.8,45.8,36.3,30.5,76,52,30,29.81,29.66,9,3,13,0.00
2013-4-16,74.8,57.2,38.6,38.6,30.9,24.4,75,41,19,29.98,29.78,6,1,11,0.00
2013-4-17,76.2,59.1,42.2,35.9,28.7,21.7,66,34,18,30.13,30.01,7,2,10,0.00
2013-4-18,84.3,62.5,41.3,40.5,33.1,25.1,71,37,19,30.13,29.95,6,1,10,0.00
2013-4-19,88.8,66.6,45.1,48.4,39.6,30.3,70,40,22,30.10,29.83,4,1,7,0.00
2013-4-20,68.5,61.7,56.8,42.0,36.9,34.1,53,40,28,29.92,29.77,1,0,3,0.00
2013-4-21,93.7,70.5,47.3,46.0,39.4,33.7,79,38,17,29.89,29.65,5,1,8,0.00
2013-4-22,95.3,73.2,51.2,48.0,40.7,35.4,78,36,14,29.89,29.53,6,1,9,0.00
2013-4-23,91.2,71.7,55.0,44.0,34.1,24.9,66,28,12,29.75,29.59,6,2,9,0.00
2013-4-24,86.0,61.5,45.6,47.7,41.1,32.5,79,51,23,29.81,29.62,5,1,9,0.00
2013-4-25,71.2,60.1,51.9,48.8,46.1,42.4,81,62,38,29.98,29.81,5,2,11,0.00
2013-4-26,85.1,63.0,48.2,51.7,45.7,41.6,91,58,29,30.13,29.98,4,1,8,0.00
2013-4-27,91.5,66.2,47.3,53.6,46.0,40.5,88,54,21,30.13,29.86,4,1,7,0.00
2013-4-28,95.5,77.0,54.3,49.3,45.6,39.9,62,36,18,29.92,29.65,5,1,7,0.00
2013-4-29,98.2,77.9,54.3,55.7,45.8,38.0,84,39,17,29.83,29.53,4,1,8,0.00
2013-4-30,92.3,75.7,54.1,48.2,38.3,25.6,69,30,14,29.71,29.53,4,1,6,0.00
2013-5-1,92.6,77.4,62.2,37.0,29.6,22.1,24,18,13,29.80,29.63,8,3,13,0.00
2013-5-2,97.1,83.6,63.3,39.5,31.7,27.3,28,16,11,29.98,29.74,6,2,11,0.00
2013-5-3,98.6,80.1,60.2,43.8,34.9,26.6,28,20,13,29.89,29.54,3,1,4,0.00
2013-5-4,65.1,62.0,59.7,33.5,32.5,30.3,37,33,27,29.57,29.57,0,0,0,0.00
2013-5-6,72.3,63.1,59.0,48.7,45.8,43.2,67,54,36,29.86,29.71,3,1,5,0.00
2013-5-7,77.7,65.2,57.0,51.6,46.3,40.4,74,53,28,29.92,29.77,3,1,4,0.00
2013-5-8,73.7,60.7,53.7,50.2,47.8,45.2,83,65,37,30.04,29.89,4,2,11,0.00
2013-5-9,78.0,63.3,52.1,49.8,47.2,43.7,88,60,34,30.10,29.92,5,2,10,0.00
2013-5-10,85.4,65.1,51.4,53.1,49.1,45.6,93,61,31,30.13,29.95,5,2,11,0.00
2013-5-11,97.8,71.8,51.6,69.8,49.6,40.2,90,52,17,30.04,29.80,4,1,7,0.00
2013-5-12,92.3,73.0,53.0,53.2,45.8,32.5,74,42,21,30.10,29.83,5,1,7,0.00
2013-5-13,62.2,60.5,59.3,46.4,44.2,41.2,58,55,51,29.89,29.86,1,0,2,0.00
2013-5-15,73.5,65.7,54.3,48.1,44.3,41.5,73,48,34,29.95,29.83,4,3,6,0.00
2013-5-16,77.7,63.6,55.4,54.0,48.0,42.9,79,59,34,29.95,29.77,4,3,8,0.00
2013-5-17,75.9,61.8,50.5,48.3,43.2,37.8,85,54,30,29.95,29.84,3,2,6,0.00
2013-5-18,83.3,66.2,50.0,48.9,45.0,41.2,89,51,24,30.07,29.89,6,2,7,0.00
2013-5-19,91.7,71.0,51.2,49.1,40.3,31.0,72,38,17,30.10,29.74,6,1,8,0.00
2013-5-20,95.9,73.5,51.2,52.3,39.6,30.7,72,35,14,29.95,29.62,6,1,9,0.00
2013-5-21,78.8,65.5,55.0,44.8,39.8,34.0,65,42,21,29.86,29.68,6,2,13,0.00
2013-5-22,76.2,59.7,43.8,38.3,32.4,27.6,69,39,21,29.93,29.71,6,2,8,0.00
2013-5-23,78.8,61.8,48.0,43.0,37.9,33.8,76,45,22,29.86,29.77,4,1,6,0.00
2013-5-24,78.2,61.2,47.1,45.4,38.3,32.8,81,47,21,29.89,29.71,6,2,8,0.00
2013-5-25,74.6,60.5,50.5,46.4,43.0,39.9,77,56,32,29.95,29.80,7,3,11,0.00
2013-5-26,76.8,63.9,54.3,51.0,46.8,43.1,82,57,32,30.04,29.89,4,2,5,0.00
2013-5-27,68.7,60.8,53.6,56.4,49.3,44.9,92,67,48,30.07,29.89,4,3,4,0.00
2013-5-28,80.7,66.3,57.9,57.7,52.1,46.4,93,64,32,29.92,29.74,4,4,4,0.00
2013-5-29,79.1,67.3,58.8,53.9,46.5,40.4,70,49,31,29.86,29.68,4,4,4,0.00
2013-5-30,85.6,66.9,49.6,50.0,42.7,38.4,92,46,22,29.92,29.71,5,2,6,0.00
2013-5-31,96.8,73.7,50.0,48.0,41.7,35.3,78,38,16,29.92,29.65,3,1,3,0.00
2013-6-1,102.0,78.7,55.9,49.1,43.6,37.8,70,33,15,29.81,29.50,4,2,6,0.00
2013-6-2,96.4,74.6,59.3,50.5,44.9,39.7,63,38,19,29.63,29.39,3,2,8,0.00
2013-6-3,81.3,66.9,55.9,51.3,48.2,44.0,83,55,30,29.66,29.48,5,2,8,0.00
2013-6-4,76.1,63.3,54.8,52.0,49.3,46.4,85,63,37,29.86,29.66,2,2,2,0.00
2013-6-5,80.6,64.9,55.7,50.9,48.5,44.9,82,59,32,29.95,29.71,5,3,5,0.00
2013-6-6,91.7,68.7,54.1,54.4,50.1,46.0,88,57,27,29.86,29.62,3,1,5,0.00
2013-6-7,104.7,75.6,55.0,56.9,51.5,45.8,91,51,17,29.81,29.48,2,1,3,0.00
2013-6-8,107.7,80.0,60.9,57.8,51.4,46.2,72,42,15,29.66,29.42,2,1,2,0.00
2013-6-9,73.4,64.3,58.4,54.8,52.0,49.6,86,66,44,29.78,29.60,7,2,10,0.00
2013-6-10,76.4,64.5,57.0,53.6,49.3,46.0,84,60,36,29.83,29.66,7,3,11,0.00
2013-6-11,87.0,67.6,54.8,51.8,49.2,45.3,81,55,29,29.89,29.71,5,1,8,0.00
2013-6-12,86.5,69.6,53.0,49.3,44.2,38.8,81,44,23,29.89,29.71,6,2,10,0.00
2013-6-13,89.9,69.8,50.7,48.2,41.8,37.7,81,42,18,30.07,29.71,4,1,6,0.00
2013-6-14,96.9,74.0,53.2,50.5,40.4,30.1,72,35,14,29.86,29.53,5,1,8,0.00
2013-6-15,80.2,65.5,53.9,49.8,44.7,36.8,79,50,30,29.83,29.60,6,2,10,0.00
2013-6-16,91.0,70.8,52.8,50.3,43.6,35.8,84,44,18,29.98,29.80,4,2,6,0.00
2013-6-17,84.5,69.3,55.2,51.3,47.2,42.1,76,48,28,29.98,29.80,6,2,9,0.00
2013-6-18,60.8,57.5,57.2,50.3,48.3,48.2,73,72,67,29.86,29.83,3,3,4,0.00
2013-6-19,57.2,57.2,57.2,48.2,48.2,48.2,72,72,72,29.86,29.86,3,3,4,0.00
2013-6-20,67.6,57.9,57.2,48.2,47.3,39.2,72,69,36,29.86,29.71,3,3,4,0.00
2013-6-21,91.4,71.2,51.6,49.3,43.5,39.2,85,43,18,29.89,29.65,2,2,2,0.00
2013-6-22,98.4,74.7,52.8,49.9,43.6,37.0,73,39,16,29.83,29.53,4,2,8,0.00
2013-6-23,71.6,66.8,61.7,58.5,56.1,52.9,83,69,59,29.80,29.68,6,2,11,0.00
2013-6-24,68.5,64.2,60.8,60.9,57.5,55.1,92,79,64,29.80,29.66,4,1,6,0.00
2013-6-25,80.6,70.2,63.3,62.2,59.3,55.5,92,69,49,29.89,29.74,5,2,8,0.00
2013-6-26,90.1,75.8,63.5,62.5,57.8,51.6,95,59,28,29.98,29.74,4,2,5,0.00
2013-6-27,99.8,78.5,58.8,61.8,52.7,44.2,90,48,16,30.01,29.80,5,2,6,0.00
2013-6-28,107.9,85.1,62.6,60.1,49.9,39.7,76,36,14,29.89,29.62,5,1,9,0.00
2013-6-29,110.3,84.1,64.2,56.5,47.2,39.2,59,31,13,29.77,29.53,3,0,4,0.00
2013-6-30,76.1,70.8,66.2,52.4,48.3,45.0,58,45,34,29.66,29.57,0,0,0,0.00
2013-7-1,107.2,97.3,80.2,56.5,48.6,44.4,32,20,14,29.62,29.53,4,2,6,0.00
2013-7-2,103.8,84.0,68.5,59.4,51.3,44.7,66,36,17,29.68,29.56,6,2,8,0.00
2013-7-3,106.7,83.1,62.4,59.9,51.5,41.4,75,40,16,29.77,29.42,4,3,7,0.00
2013-7-4,107.2,85.3,71.0,55.8,47.7,38.5,52,30,15,29.54,29.38,4,2,7,0.00
2013-7-5,77.9,68.7,59.0,51.1,47.8,41.3,73,49,32,29.66,29.42,8,3,10,0.00
2013-7-6,84.2,66.5,57.3,53.7,50.1,46.5,83,60,30,29.74,29.48,5,2,6,0.00
2013-7-7,94.6,72.0,55.7,54.6,49.1,39.7,91,53,18,29.83,29.48,5,1,7,0.00
2013-7-8,97.3,71.3,55.5,54.5,48.5,37.3,89,53,17,29.86,29.62,4,1,6,0.00
2013-7-9,105.0,79.5,55.2,56.8,47.8,39.5,87,40,12,29.95,29.65,4,1,7,0.00
2013-7-10,97.3,75.3,58.2,52.9,44.1,31.2,74,38,11,29.89,29.62,5,2,7,0.00
2013-7-11,85.2,66.1,54.5,52.6,49.2,43.9,90,60,29,29.86,29.62,6,3,10,0.00
2013-7-12,90.3,69.8,55.9,54.3,48.0,39.3,89,53,20,29.89,29.59,5,2,11,0.00
2013-7-13,97.5,75.5,55.5,56.6,45.5,35.8,79,40,16,29.89,29.56,4,1,9,0.00
2013-7-14,93.0,76.9,55.5,52.3,45.1,38.5,79,38,18,29.89,29.65,5,2,7,0.00
2013-7-15,91.9,87.8,57.9,52.6,43.4,42.3,81,25,18,29.72,29.65,3,3,3,0.00
2013-7-16,77.0,65.3,58.8,52.8,50.3,46.4,79,60,37,29.92,29.69,4,2,6,0.00
2013-7-17,89.4,70.9,59.5,54.6,51.0,45.7,80,54,24,30.01,29.77,4,2,6,0.00
2013-7-18,99.3,73.8,52.8,55.1,48.7,38.5,90,50,13,29.92,29.62,4,2,4,0.00
2013-7-19,101.4,75.7,56.1,57.1,49.6,42.2,89,47,15,29.83,29.50,5,2,7,0.00
2013-7-20,98.9,72.8,56.4,55.8,50.4,45.0,88,52,18,29.75,29.44,4,2,8,0.00
2013-7-21,93.3,73.5,56.6,53.5,49.0,42.4,84,48,19,29.71,29.42,4,2,8,0.00
2013-7-22,90.3,72.2,58.6,57.2,51.2,46.7,87,51,25,29.89,29.66,4,2,7,0.00
2013-7-23,90.5,74.0,63.6,55.2,46.2,37.2,63,40,19,29.86,29.68,4,1,5,0.00
2013-7-24,100.4,80.1,61.7,56.1,46.2,38.5,70,35,16,29.86,29.62,4,1,6,0.00
2013-7-25,94.6,76.9,62.7,53.5,47.3,40.5,63,38,20,29.80,29.65,0,0,0,0.00
2013-7-26,96.4,73.7,57.9,52.9,48.9,40.1,81,46,19,29.98,29.71,4,1,6,0.00
2013-7-27,89.2,70.4,56.8,54.3,50.9,43.3,90,56,23,29.92,29.56,5,2,13,0.00
2013-7-28,82.0,66.7,57.3,55.8,51.2,46.3,92,62,31,29.80,29.57,6,3,11,0.00
2013-7-29,78.2,65.1,57.7,53.6,50.7,47.5,86,63,36,29.89,29.69,5,3,9,0.00
2013-7-30,87.9,68.3,55.7,53.6,49.6,43.2,88,57,24,30.04,29.83,6,2,9,0.00
2013-7-31,84.7,67.8,55.7,52.6,49.0,43.6,88,56,28,30.01,29.77,5,2,9,0.00
2013-8-1,81.8,67.5,56.1,51.4,47.4,42.5,82,52,29,29.98,29.74,5,3,9,0.00
2013-8-2,91.0,70.0,53.2,53.9,47.7,42.4,89,51,21,29.89,29.65,6,3,10,0.00
2013-8-3,89.0,69.8,56.3,53.7,49.2,41.8,88,54,22,29.89,29.65,4,3,8,0.00
2013-8-4,86.0,66.0,55.9,54.2,50.4,44.7,93,63,28,29.89,29.71,6,3,11,0.00
2013-8-5,86.0,66.7,55.7,54.4,50.4,43.7,87,62,25,29.95,29.74,6,3,11,0.00
2013-8-6,78.8,64.1,55.2,54.4,50.9,47.5,89,66,34,29.95,29.83,6,3,10,0.00
2013-8-7,75.9,65.0,58.6,56.4,52.0,48.6,89,65,40,30.01,29.89,6,3,11,0.00
2013-8-8,82.4,66.5,57.3,55.4,51.9,46.0,82,63,31,29.92,29.74,4,2,8,0.00
2013-8-9,79.7,65.4,56.8,54.2,51.5,48.1,87,64,34,29.92,29.77,3,3,3,0.00
2013-8-10,85.1,67.9,58.6,55.6,53.0,48.8,88,63,31,30.01,29.83,6,4,6,0.00
2013-8-11,89.9,70.1,57.2,57.2,52.0,43.4,96,60,22,29.98,29.71,6,2,8,0.00
2013-8-12,93.0,72.3,56.3,55.9,48.2,38.9,90,50,18,29.92,29.65,4,1,4,0.00
2013-8-13,100.2,75.1,54.1,55.6,46.5,38.3,83,43,13,29.89,29.65,3,2,5,0.00
2013-8-14,94.8,73.5,58.4,56.6,49.1,43.7,74,47,18,29.83,29.62,4,2,6,0.00
2013-8-15,95.9,75.4,60.4,61.5,56.6,49.8,93,58,22,29.83,29.65,5,2,9,0.00
2013-8-16,96.8,77.4,62.0,64.2,55.1,44.4,96,53,21,29.89,29.68,4,2,7,0.00
2013-8-17,89.9,71.8,62.0,56.6,52.4,49.0,72,53,28,29.86,29.62,5,2,9,0.00
2013-8-18,104.1,79.5,58.8,61.3,53.2,46.7,87,48,15,29.83,29.53,3,1,6,0.00
2013-8-19,102.0,80.8,64.7,60.5,51.5,42.1,75,40,18,29.74,29.56,4,1,6,0.00
2013-8-20,93.5,74.6,60.8,57.2,49.7,39.8,80,46,20,29.77,29.53,5,2,9,0.00
2013-8-21,88.5,69.5,58.6,54.6,50.6,42.5,86,56,21,29.83,29.59,3,1,5,0.00
2013-8-22,83.1,67.7,58.2,54.2,50.6,46.7,84,58,30,29.89,29.68,5,2,11,0.00
2013-8-23,87.0,68.6,57.5,54.5,51.2,46.4,86,58,29,29.86,29.57,6,2,10,0.00
2013-8-24,88.5,71.2,58.1,56.6,52.0,48.0,85,56,28,29.75,29.65,2,1,4,0.00
2013-8-25,87.8,71.5,63.1,61.5,56.4,50.5,89,63,32,29.83,29.68,7,2,10,0.00
2013-8-26,88.5,71.4,61.5,57.2,51.6,42.2,83,55,23,29.92,29.65,5,2,9,0.00
2013-8-27,95.9,72.8,54.8,56.5,49.6,42.0,87,50,18,29.81,29.56,5,1,9,0.00
2013-8-28,92.4,73.4,58.4,60.7,54.4,50.8,92,56,26,29.83,29.65,5,1,9,0.00
2013-8-29,91.9,73.8,61.5,60.6,56.2,49.3,92,60,24,29.98,29.74,5,1,7,0.00
2013-8-30,101.3,78.2,59.5,64.5,52.5,42.9,93,49,16,29.98,29.68,0,0,0,0.00
2013-8-31,91.9,74.2,58.8,56.8,50.0,42.5,81,48,20,29.83,29.65,5,1,9,0.00
2013-9-1,92.6,73.8,62.0,55.3,51.7,45.0,76,50,21,29.83,29.62,5,2,9,0.00
2013-9-2,89.7,74.4,66.3,60.4,55.8,51.3,77,55,29,29.86,29.68,5,1,7,0.00
2013-9-3,86.1,71.9,60.9,55.8,50.3,41.2,77,51,22,29.86,29.71,5,1,9,0.00
2013-9-4,87.9,71.5,59.1,59.7,53.1,44.7,94,58,23,29.95,29.71,4,2,8,0.00
2013-9-5,87.9,72.2,60.8,57.2,50.5,41.7,83,52,21,29.92,29.71,5,1,6,0.00
2013-9-6,99.1,75.0,53.4,59.8,46.4,37.4,88,44,16,29.92,29.54,2,2,4,0.00
2013-9-7,102.5,78.1,56.1,52.7,43.0,37.0,68,34,12,29.77,29.53,4,1,4,0.00
2013-9-8,103.2,78.1,57.2,53.2,45.7,41.4,68,36,14,29.69,29.47,2,1,4,0.00
2013-9-9,105.9,79.0,57.5,56.6,46.2,35.2,78,37,14,29.69,29.44,5,1,7,0.00
2013-9-10,84.2,70.2,61.7,57.5,52.0,44.0,79,55,32,29.75,29.48,6,2,11,0.00
2013-9-11,79.8,68.8,62.9,57.5,54.4,50.9,81,62,39,29.89,29.74,5,2,8,0.00
2013-9-12,90.1,70.5,61.7,60.1,56.2,51.5,83,65,30,29.89,29.65,4,2,9,0.00
2013-9-13,92.3,70.2,58.2,58.9,53.2,44.0,93,61,28,29.83,29.54,5,2,13,0.00
2013-9-14,80.9,66.6,57.5,56.9,52.3,47.2,92,64,34,29.77,29.54,6,2,11,0.00
2013-9-15,86.5,69.4,56.8,56.5,51.7,48.1,87,59,28,29.78,29.62,6,2,11,0.00
2013-9-16,90.8,70.7,58.1,61.6,53.1,44.5,98,60,21,29.83,29.59,6,1,11,0.00
2013-9-17,82.2,68.8,59.1,54.5,49.4,45.1,81,54,29,29.78,29.62,3,3,3,0.00
2013-9-18,91.9,68.8,52.1,55.6,43.3,36.9,83,46,18,29.86,29.56,4,2,6,0.00
2013-9-19,98.7,71.4,48.9,49.7,40.0,32.5,74,38,13,29.81,29.48,4,0,4,0.00
2013-9-20,80.2,66.5,54.6,55.8,49.9,36.4,82,56,40,29.74,29.57,5,2,10,0.00
2013-9-21,68.9,63.5,56.1,62.7,54.7,50.0,95,74,52,29.83,29.66,4,2,10,0.33
2013-9-22,69.6,63.2,50.1,61.7,51.5,47.8,98,68,49,29.95,29.81,1,1,0,0.00
2013-9-23,69.6,69.6,69.6,52.2,52.2,52.2,54,54,54,29.95,29.95,1,1,0,0.00
2013-9-24,69.6,69.6,69.6,52.2,52.2,52.2,54,54,54,29.95,29.95,1,1,0,0.00
2013-9-25,69.6,69.6,69.6,52.2,52.2,52.2,54,54,54,29.95,29.95,1,1,0,0.00
2013-9-26,69.6,69.6,69.6,52.2,52.2,52.2,54,54,54,29.95,29.95,1,1,0,0.00
2013-9-28,91.9,78.1,60.4,54.0,40.7,27.8,76,31,16,29.95,29.77,0,0,0,0.00
2013-9-29,82.4,67.5,56.4,57.9,52.7,48.8,90,62,33,29.98,29.89,0,0,0,0.00
2013-9-30,81.3,68.8,58.4,61.6,56.2,50.2,89,66,37,29.98,29.80,3,0,3,0.00
2013-10-1,81.6,64.8,51.8,52.9,45.1,40.4,92,53,24,29.98,29.74,0,0,0,0.00
2013-10-2,85.2,64.9,49.1,58.9,42.6,33.8,90,50,22,29.89,29.71,0,0,2,0.00
2013-10-3,81.6,63.7,44.0,49.0,34.3,26.2,79,39,17,29.98,29.74,5,2,8,0.00
2013-10-4,85.2,70.5,54.5,36.8,28.8,23.3,37,22,16,29.92,29.77,9,6,11,0.00
2013-10-5,90.1,71.1,52.7,37.0,29.9,23.2,45,23,12,30.04,29.89,9,9,9,0.00
2013-10-6,90.8,64.6,44.2,42.2,33.7,28.6,64,35,16,30.01,29.77,9,4,9,0.00
2013-10-7,93.0,67.6,47.1,42.2,32.9,24.6,61,32,12,29.83,29.56,2,0,3,0.00
2013-10-8,83.8,63.2,45.8,48.1,37.0,27.9,72,41,20,29.81,29.54,4,1,6,0.00
2013-10-9,77.7,60.5,48.0,50.5,39.6,32.9,88,51,23,29.57,29.42,5,1,6,0.00
2013-10-10,82.2,61.6,47.1,49.5,38.5,34.7,75,47,20,29.87,29.57,4,1,9,0.00
2013-10-11,78.4,58.7,45.3,51.9,41.3,35.9,84,56,25,29.98,29.80,4,1,4,0.00
2013-10-12,81.6,59.0,42.4,51.6,40.4,35.3,87,55,24,29.90,29.72,4,1,8,0.00
2013-10-13,81.1,61.4,45.5,53.6,38.5,31.5,88,48,20,29.92,29.78,4,0,6,0.00
2013-10-14,84.5,61.2,42.0,48.4,35.1,27.1,83,44,19,30.04,29.83,5,1,10,0.00
2013-10-15,81.6,54.6,42.8,36.9,31.1,25.7,79,45,17,29.93,29.77,4,0,6,0.00
2013-10-16,87.4,62.9,42.8,44.1,33.8,29.4,67,38,18,29.98,29.83,5,0,6,0.00
2013-10-17,88.3,63.4,43.5,45.9,33.5,27.2,68,38,14,29.98,29.74,3,0,4,0.00
2013-10-18,87.4,62.8,42.9,41.7,34.0,28.9,71,38,18,29.93,29.77,4,0,8,0.00
2013-10-19,91.0,63.7,43.3,46.9,36.8,31.6,76,43,18,29.98,29.80,2,0,3,0.00
2013-10-20,88.3,62.5,42.6,48.1,37.5,33.0,78,45,18,29.92,29.68,3,0,6,0.00
2013-10-21,83.4,60.4,43.8,50.5,41.6,37.0,85,54,26,29.89,29.74,4,1,6,0.00
2013-10-22,51.6,48.6,48.5,41.7,40.3,40.2,73,73,68,29.87,29.84,0,0,0,0.00
2013-10-23,48.5,48.5,48.5,40.3,40.3,40.3,73,73,73,29.87,29.87,0,0,0,0.00
2013-10-24,48.5,48.5,48.5,40.3,40.3,40.3,73,73,73,29.87,29.87,0,0,0,0.00
2013-10-25,48.5,48.5,48.5,40.3,40.3,40.3,73,73,73,29.87,29.87,0,0,0,0.00
2013-10-26,48.5,48.5,48.5,40.3,40.3,40.3,73,73,73,29.87,29.87,0,0,0,0.00
2013-10-27,48.5,48.5,48.5,40.3,40.3,40.3,73,73,73,29.87,29.87,0,0,0,0.00
2013-10-28,48.5,48.5,48.5,40.3,40.3,40.3,73,73,73,29.87,29.87,0,0,0,0.00
2013-10-29,48.5,48.5,48.5,40.3,40.3,40.3,73,73,73,29.87,29.87,0,0,0,0.00
2013-10-30,48.5,48.5,48.5,40.3,40.3,40.3,73,73,73,29.87,29.87,0,0,0,0.00
2013-10-31,48.5,48.5,48.5,40.3,40.3,40.3,73,73,73,29.87,29.87,0,0,0,0.00
2013-11-1,81.8,70.0,64.2,46.4,39.1,37.0,38,33,25,30.01,29.92,5,1,11,0.00
2013-11-2,64.2,64.2,64.2,38.0,38.0,38.0,38,38,38,29.92,29.92,0,0,0,0.00
2013-11-3,64.2,64.2,64.2,38.0,38.0,38.0,38,38,38,29.92,29.92,0,0,0,0.00
2013-11-4,64.2,64.2,64.2,38.0,38.0,38.0,38,38,38,29.92,29.92,0,0,0,0.00
2013-11-5,77.5,63.9,45.5,42.3,34.4,27.9,56,35,21,30.10,29.92,4,0,8,0.00
2013-11-6,76.8,56.4,40.1,44.4,33.5,29.5,78,46,23,30.16,30.01,5,1,11,0.00
2013-11-7,83.3,59.7,44.9,45.4,35.4,30.5,75,44,19,30.07,29.92,3,0,6,0.00
2013-11-8,82.0,59.0,42.0,50.3,38.5,33.0,85,50,23,29.98,29.80,4,0,6,0.76
2013-11-9,79.7,57.2,41.0,50.9,39.2,35.1,91,55,27,29.93,29.83,3,0,7,0.00
2013-11-10,75.5,55.3,41.9,51.8,41.5,35.9,92,63,33,30.01,29.90,3,0,5,0.00
2013-11-11,71.6,55.2,42.6,55.2,42.2,37.9,98,65,33,30.07,29.95,4,0,6,0.00
2013-11-12,76.1,59.5,47.4,55.6,42.9,37.0,82,57,31,30.19,30.04,4,0,5,0.00
2013-11-13,84.3,59.9,42.4,53.2,41.3,37.7,94,57,20,30.16,29.95,3,0,4,0.00
2013-11-14,78.0,57.0,44.9,53.8,43.9,34.0,91,64,33,30.01,29.72,3,1,120,0.00
2013-11-15,74.1,54.6,41.0,44.9,33.5,29.3,81,48,23,29.78,29.54,3,0,4,0.00
2013-11-16,71.0,55.7,43.5,47.8,39.7,31.9,89,60,25,29.81,29.60,4,1,6,0.00
2013-11-17,69.6,54.8,44.7,52.1,42.6,38.3,97,67,34,30.01,29.81,4,0,6,0.00
2013-11-18,44.6,41.3,41.1,38.1,36.8,36.7,84,84,78,30.01,29.98,0,0,0,0.00
2013-11-19,64.0,52.8,41.1,56.8,48.1,36.7,98,84,57,30.01,29.81,4,0,9,0.46
2013-11-20,61.7,57.6,53.0,60.0,56.4,52.3,98,96,85,29.86,29.72,3,0,5,0.57
2013-11-21,65.1,55.1,49.2,53.0,37.7,19.5,98,61,26,29.92,29.77,7,2,12,0.13
2013-11-22,72.6,59.0,49.2,28.0,21.6,17.7,35,24,16,29.92,29.74,10,5,16,0.00
2013-11-23,72.3,51.7,37.4,39.0,30.9,21.2,74,48,24,29.99,29.83,4,0,6,0.00
2013-11-24,69.6,48.9,35.6,47.8,34.4,30.0,90,61,32,30.16,29.99,4,0,4,0.00
2013-11-25,71.2,50.0,34.7,47.1,35.7,30.0,91,62,33,30.28,30.13,2,0,3,0.00
2013-11-26,49.6,46.4,44.9,39.4,36.9,34.6,77,70,57,30.01,29.95,0,0,2,0.00
2013-11-27,66.7,51.3,42.0,50.3,39.9,37.1,93,67,44,30.43,29.87,0,0,0,0.00
2013-11-28,76.2,52.7,39.3,52.8,37.8,33.4,98,63,25,30.54,30.33,0,0,0,0.08
2013-11-29,73.5,52.2,37.9,48.8,36.8,33.2,91,60,30,30.69,30.51,0,0,0,0.08
2013-11-30,71.7,50.4,38.8,49.5,37.5,33.2,93,65,32,30.79,30.63,0,0,0,0.00
2013-12-1,75.5,52.2,37.7,53.2,37.8,33.9,95,63,29,30.90,30.69,0,0,0,0.08
2013-12-2,75.7,53.7,37.5,51.0,40.8,33.0,95,65,31,30.73,30.37,0,0,0,0.08
2013-12-3,58.1,49.9,34.3,51.4,31.6,21.5,82,51,34,30.40,30.25,0,0,0,0.00
2013-12-4,59.3,39.1,26.9,30.3,18.5,9.7,81,47,21,30.54,29.92,4,0,32,0.16
2013-12-5,51.8,34.4,23.0,19.3,14.2,9.7,68,46,24,30.10,30.00,6,1,7,0.08
2013-12-6,50.9,39.5,26.6,47.6,26.8,14.2,94,62,39,30.15,29.83,5,1,9,1.12
2013-12-7,49.6,41.6,30.2,46.0,28.8,18.7,97,64,32,30.25,29.83,7,1,21,0.24
2013-12-8,44.6,36.6,28.0,25.9,16.9,11.4,88,47,31,30.30,30.15,7,2,11,0.88
2013-12-9,49.8,39.7,27.5,19.6,14.1,8.8,65,36,29,30.37,30.24,11,4,16,0.00
2013-12-10,53.4,36.8,24.0,29.4,20.1,17.1,85,54,29,30.37,30.12,6,1,11,0.00
2013-12-11,55.5,38.4,26.4,30.7,23.0,19.8,87,57,29,30.21,30.09,7,1,11,0.00
2013-12-12,60.2,39.9,27.3,32.9,25.8,21.7,90,61,29,30.22,30.06,5,0,6,0.00
2013-12-13,62.4,42.0,29.1,35.4,27.0,24.3,92,60,26,30.30,30.16,4,0,6,0.00
2013-12-14,59.7,41.6,30.2,35.6,27.9,23.8,91,61,32,30.39,30.24,6,1,10,0.00
2013-12-15,62.9,41.8,29.4,36.3,27.9,24.2,90,62,29,30.34,30.18,5,1,8,0.16
2013-12-16,67.1,46.3,33.4,40.6,29.9,26.7,92,59,24,30.24,30.06,6,1,9,0.00
2013-12-17,65.4,46.2,36.1,41.0,33.0,28.5,88,64,29,30.16,29.95,5,0,8,0.00
2013-12-18,67.8,48.9,36.8,43.9,37.0,31.9,88,67,31,30.01,29.65,5,1,8,0.08
2013-12-19,62.2,47.2,35.0,42.9,29.3,17.9,86,54,25,29.86,29.62,6,1,10,0.00
2013-12-20,63.8,43.9,29.4,23.9,19.3,16.3,67,41,18,29.95,29.82,3,0,4,0.08
2013-12-21,63.6,45.3,34.7,34.8,29.2,21.6,82,56,28,30.04,29.86,4,0,6,0.08
2013-12-22,64.5,45.7,33.6,40.2,32.4,29.2,97,64,29,30.27,30.04,6,1,9,0.00
2013-12-23,62.6,45.0,33.4,36.8,31.8,29.2,89,63,33,30.39,30.24,6,1,8,0.08
2013-12-24,68.7,48.1,36.1,40.3,33.6,30.9,92,62,29,30.33,30.12,6,0,21,0.08
2013-12-25,64.9,45.1,32.7,42.0,32.2,28.3,98,65,32,30.27,30.15,6,1,10,0.00
2013-12-26,66.2,44.8,31.2,40.3,29.8,26.9,93,61,25,30.25,30.09,6,1,9,0.00
2013-12-27,60.2,43.3,31.2,39.3,32.7,26.3,89,68,40,30.22,30.06,4,0,6,0.00
2013-12-28,68.7,44.9,30.0,38.0,27.6,23.3,98,58,22,30.13,29.94,5,0,7,0.08
2013-12-29,65.3,51.5,36.3,27.5,23.4,16.0,65,36,22,30.24,30.06,9,2,13,0.96
2013-12-30,63.5,43.3,30.5,34.8,29.4,24.1,83,61,34,30.33,30.19,3,0,5,0.00
2013-12-31,65.1,44.9,33.9,38.0,29.2,24.4,88,59,25,30.33,30.18,5,0,8,0.00
2014-1-1,66.3,45.0,31.2,34.9,28.3,25.1,83,56,27,30.31,30.15,4,0,6,0.00
2014-1-2,67.1,46.8,33.2,35.7,29.5,26.6,86,55,26,30.27,30.06,6,1,9,0.00